Wind_Speed
98 100 101 98 109 111 113 113 108 104 103 96 99 105 102 96 92 92 92 75 78 76 73 77 76 72 73 68 65 65 58 62 53 51 53 48 44 44 34 38 35 34 32 25 25
98 102 108 104 105 115 119 113 114 110 106 106 99 101 106 97 94 94 93 87 77 77 75 79 80 78 78 70 74 69 63 60 54 54 51 54 49 47 41 40 37 35 35 26 27
98 104 110 113 109 117 120 120 116 115 112 107 104 101 101 96 97 99 98 93 86 79 80 80 80 85 79 80 78 70 66 65 58 57 55 53 53 50 45 43 44 39 35 28 28
95 100 110 117 117 114 122 124 121 121 116 112 108 104 102 99 95 102 103 97 96 87 85 82 89 84 83 77 81 73 63 61 58 57 57 54 48 47 48 44 45 40 37 31 32
91 99 106 117 124 117 121 123 124 126 118 114 113 110 107 105 100 101 106 107 101 92 91 93 78 80 95 89 83 78 68 60 59 55 56 51 48 47 46 47 46 45 39 39 36
84 96 107 116 125 124 119 123 125 124 122 116 113 115 115 109 105 101 103 106 109 101 96 92 82 79 73 83 90 90 83 68 61 58 57 52 48 49 46 44 39 40 40 36 37
82 93 107 115 123 128 121 125 124 123 123 120 118 117 114 112 107 102 102 108 111 105 104 103 94 89 87 80 76 85 89 81 70 66 58 55 51 52 50 48 44 42 42 38 38
77 89 104 114 122 127 126 125 125 118 120 123 123 119 114 110 107 105 102 100 106 109 105 100 99 93 92 94 87 83 86 83 76 72 69 62 56 57 54 51 49 47 43 44 40
74 85 100 112 120 128 129 124 126 122 123 121 124 120 116 113 107 106 102 99 95 102 106 102 105 96 95 92 94 95 86 81 80 79 75 70 66 65 59 56 53 50 46 44 47
71 83 97 110 119 129 130 125 127 127 124 126 122 122 116 112 110 107 104 101 98 97 99 102 104 103 101 96 93 86 95 92 87 85 84 81 76 70 67 64 59 52 51 49 50
68 82 94 108 117 128 131 129 129 128 126 121 120 117 117 115 114 111 110 107 102 101 99 98 93 92 96 98 93 91 88 92 94 85 80 75 79 73 69 64 62 57 54 55 55
66 79 91 104 116 126 133 132 129 129 124 125 123 120 120 119 116 115 113 112 108 105 103 101 92 89 91 94 97 96 92 86 90 87 82 82 77 78 76 69 68 69 66 65 62
63 75 87 101 115 124 133 132 129 129 128 125 123 121 121 118 116 116 116 114 113 110 107 104 98 96 94 92 94 99 99 95 90 90 87 84 81 80 79 76 75 75 70 68 72
61 72 83 97 111 122 131 132 130 132 131 126 126 128 125 120 116 115 115 113 112 110 109 107 103 98 95 94 94 90 93 99 102 97 93 87 80 76 76 79 82 82 82 80 77
57 68 79 94 107 119 127 133 133 131 132 132 136 128 124 120 117 113 112 115 112 111 112 108 105 105 102 98 96 92 94 95 96 102 101 97 92 83 82 77 83 86 87 85 82
54 65 76 90 104 118 125 131 132 134 138 138 134 128 127 126 124 117 114 111 113 112 110 109 107 105 105 104 104 101 98 96 95 97 100 96 100 90 88 87 89 92 91 91 89
51 61 72 85 99 113 121 127 134 133 137 138 134 128 127 128 127 122 117 115 112 110 109 107 109 108 108 107 105 104 102 102 103 101 97 95 98 84 91 94 95 96 96 93 95
46 57 67 80 92 106 119 124 130 133 134 137 134 133 132 131 127 124 120 117 115 112 110 109 109 108 108 110 109 109 107 110 110 105 99 99 94 84 86 91 95 100 99 99 99
44 53 60 73 86 98 113 122 128 131 134 131 129 131 132 133 129 124 122 120 118 116 114 110 110 110 111 113 113 112 109 110 110 106 103 97 88 85 87 89 93 95 97 98 98
39 47 56 66 80 93 104 118 122 127 129 131 128 129 132 134 131 127 124 122 121 118 118 115 113 112 111 113 114 114 112 111 110 109 106 99 93 87 90 92 93 96 99 99 99
31 41 51 59 72 85 95 108 119 123 127 130 129 130 129 130 132 129 127 123 121 119 118 118 118 117 115 112 112 115 114 115 115 113 109 103 96 93 93 92 92 92 94 96 96
25 34 45 55 64 76 88 97 110 121 123 127 129 126 127 126 127 127 129 123 120 119 120 120 119 118 118 117 118 116 113 117 115 112 113 108 96 95 94 93 94 96 98 101 99
22 28 37 48 56 65 78 89 98 112 120 125 125 128 128 128 128 123 121 124 124 121 121 122 120 118 119 120 120 120 119 119 117 116 112 112 96 95 97 97 98 101 101 100 100
16 22 28 36 47 55 66 78 89 98 113 120 123 126 127 127 126 124 121 117 121 122 125 124 124 121 123 124 123 123 123 122 124 122 111 111 100 100 102 104 105 106 106 107 108
10 17 22 27 36 48 56 64 76 87 97 111 118 119 123 124 126 123 122 121 119 120 127 129 126 127 129 127 125 123 123 123 122 120 124 115 114 105 110 112 113 112 112 114 115
7 6 15 21 26 33 44 53 60 74 83 93 104 111 113 119 121 120 121 120 123 120 121 122 124 132 128 128 129 126 121 121 122 119 121 115 117 112 113 117 116 117 122 122 120
15 9 6 9 16 22 29 36 43 52 63 75 83 91 102 109 112 115 116 118 121 119 123 121 121 121 123 132 133 128 121 123 123 121 122 120 115 117 117 120 119 122 122 121 121
Wind_Direction
224 221 224 220 217 218 217 215 214 214 216 215 215 216 215 215 213 213 216 216 222 230 232 235 227 231 229 236 228 232 235 243 246 244 250 246 249 249 254 257 265 271 271 258 258
226 220 221 222 217 215 217 215 214 213 215 218 216 215 215 217 215 214 216 216 223 226 222 232 230 231 230 228 228 236 243 245 247 251 253 253 248 251 253 257 258 268 266 258 254
229 223 220 220 218 214 216 215 213 214 214 217 218 217 216 215 218 213 217 220 223 225 226 232 230 230 231 228 233 240 243 245 246 249 250 253 250 250 249 256 258 263 267 254 253
228 222 219 217 217 214 213 214 214 214 213 215 217 218 217 215 215 216 217 220 224 225 226 228 229 230 231 236 231 235 237 239 241 245 246 250 253 253 251 252 258 262 265 261 253
224 221 216 214 214 213 212 213 213 215 213 215 215 217 218 216 216 216 216 219 221 223 227 229 227 234 234 239 236 231 234 234 238 241 246 248 251 250 251 252 256 258 263 269 263
220 216 212 212 211 212 211 210 213 215 214 215 216 218 218 217 217 217 219 218 222 224 226 229 224 228 233 242 241 235 232 236 236 238 242 243 245 247 248 251 252 255 258 264 267
217 214 210 209 209 210 210 210 209 214 213 214 215 218 219 221 218 217 219 219 221 225 227 231 233 235 234 234 239 241 235 239 237 236 237 241 245 244 245 249 251 253 256 259 264
214 211 209 207 207 207 209 209 210 210 214 214 216 216 218 221 222 221 220 221 223 225 226 225 230 234 235 235 239 240 243 240 240 237 235 237 242 244 245 246 247 248 251 251 259
211 210 207 206 205 205 208 208 210 209 212 215 217 216 217 218 221 224 224 223 224 227 230 229 231 232 232 237 238 242 242 244 242 242 238 238 242 242 242 243 247 250 252 254 255
211 209 207 205 204 203 207 207 208 208 213 213 217 217 216 218 219 223 224 226 225 226 229 231 231 234 235 241 244 242 243 240 243 245 245 246 243 244 246 245 243 246 253 254 253
211 209 207 204 203 204 205 207 208 209 210 215 215 218 220 215 220 220 223 224 226 226 227 229 232 235 236 238 237 238 243 247 247 243 244 244 243 242 244 247 245 242 247 251 256
211 209 206 204 203 203 204 207 207 210 210 213 218 217 219 219 218 221 222 224 225 226 228 229 228 231 234 236 238 241 239 242 244 245 241 240 242 242 242 244 247 248 247 246 249
211 209 206 205 203 203 204 206 207 210 211 213 216 218 219 218 220 220 222 224 226 227 227 228 229 231 232 234 238 239 241 241 240 242 243 244 242 242 243 246 244 248 252 252 251
209 209 206 205 204 204 205 205 207 209 212 212 216 218 220 221 221 221 222 224 226 229 230 230 229 231 233 234 236 238 241 242 242 241 242 242 239 241 243 246 249 251 250 252 255
209 208 206 205 205 204 205 206 208 208 212 213 215 217 221 223 223 224 224 223 225 228 230 232 233 233 233 232 236 237 238 240 242 243 242 242 243 238 245 247 246 248 249 252 254
209 207 206 206 205 205 206 206 207 210 212 214 216 217 221 223 225 225 227 228 227 227 230 231 233 236 238 237 237 235 237 241 242 242 242 242 244 239 243 247 246 248 248 250 254
209 206 206 206 205 206 207 207 208 210 214 214 216 218 220 223 224 225 227 229 230 231 231 232 233 234 236 239 242 242 243 243 241 241 240 241 242 239 242 244 250 253 251 251 252
209 207 206 206 207 207 207 208 210 210 214 217 216 217 220 224 224 225 228 230 232 233 234 234 234 236 237 239 241 240 242 245 246 247 245 242 242 241 241 243 248 251 255 258 256
206 209 206 205 208 208 209 210 210 212 215 217 218 218 221 224 226 225 227 229 232 234 235 236 235 236 238 239 241 242 244 245 247 248 250 250 251 249 249 248 247 248 252 256 258
206 206 206 206 207 210 210 211 211 213 216 219 218 220 221 224 225 227 227 229 231 233 235 237 238 238 239 240 242 244 246 248 249 249 251 252 252 251 253 255 257 257 256 258 261
205 204 207 206 208 210 212 212 212 215 216 219 220 221 223 224 225 226 228 229 230 233 235 237 239 239 240 242 243 244 246 249 251 251 252 250 249 250 253 256 258 259 260 262 263
205 206 206 206 209 209 213 214 214 216 217 221 222 223 225 226 228 228 230 231 231 233 236 238 239 240 243 243 244 246 247 249 251 253 253 253 254 257 259 259 258 258 259 260 261
204 207 207 209 208 212 213 215 215 217 219 221 224 224 226 228 229 230 231 231 232 234 236 238 239 241 241 244 246 248 248 251 252 253 253 254 253 255 257 260 264 265 265 264 261
195 209 211 211 211 213 215 216 218 218 220 223 225 225 227 229 231 232 232 233 234 234 236 238 241 241 243 243 245 246 248 250 251 253 256 256 257 258 260 261 261 261 262 264 266
185 198 209 216 214 214 218 219 219 222 222 226 228 228 229 230 232 234 235 234 235 236 236 239 241 242 244 245 246 247 249 251 254 255 255 255 257 258 260 261 262 264 265 265 265
97 179 208 212 216 220 223 222 222 224 225 227 229 232 232 233 234 235 237 237 238 238 237 239 242 243 246 247 248 248 250 253 254 256 258 257 256 259 259 261 263 264 265 265 267
73 98 148 209 225 226 226 229 230 228 229 232 233 235 236 237 238 238 239 240 242 242 242 242 244 245 246 247 248 249 251 252 255 257 258 259 260 261 261 260 261 261 262 265 266
Height
10494 10508 10519 10534 10550 10565 10581 10597 10613 10628 10639 10650 10658 10668 10685 10697 10711 10721 10726 10738 10742 10751 10761 10766 10775 10782 10791 10801 10808 10813 10819 10822 10825 10829 10834 10838 10843 10846 10849 10853 10855 10857 10858 10859 10861
10465 10481 10494 10511 10529 10541 10556 10579 10591 10607 10620 10630 10645 10655 10670 10685 10699 10707 10713 10725 10729 10740 10750 10752 10764 10771 10780 10791 10799 10803 10808 10813 10816 10821 10826 10831 10836 10839 10842 10847 10850 10852 10853 10855 10857
10434 10452 10469 10486 10503 10519 10535 10552 10572 10584 10598 10614 10630 10645 10658 10670 10684 10694 10702 10714 10723 10731 10739 10739 10754 10759 10767 10780 10788 10794 10800 10804 10809 10814 10820 10823 10827 10832 10835 10840 10843 10846 10848 10851 10852
10402 10422 10441 10458 10478 10497 10513 10528 10548 10561 10579 10597 10612 10627 10640 10653 10666 10678 10687 10698 10708 10716 10724 10731 10740 10746 10756 10765 10777 10784 10791 10796 10801 10807 10812 10815 10820 10823 10829 10834 10835 10838 10842 10844 10846
10373 10392 10413 10432 10453 10475 10493 10508 10528 10543 10564 10579 10594 10607 10622 10636 10649 10659 10670 10683 10692 10702 10710 10719 10726 10735 10741 10750 10762 10773 10781 10787 10794 10799 10803 10807 10811 10816 10820 10825 10827 10831 10835 10837 10839
10349 10365 10386 10407 10429 10451 10472 10490 10506 10526 10547 10561 10577 10590 10600 10616 10630 10645 10658 10670 10680 10690 10697 10707 10714 10723 10733 10738 10746 10759 10769 10779 10785 10790 10794 10798 10802 10808 10811 10816 10820 10823 10828 10829 10831
10326 10343 10363 10385 10410 10430 10452 10470 10491 10507 10529 10543 10558 10570 10590 10604 10619 10631 10644 10655 10666 10676 10686 10696 10704 10713 10722 10727 10732 10743 10757 10768 10776 10779 10785 10789 10793 10795 10800 10806 10812 10816 10819 10821 10823
10308 10325 10342 10365 10389 10413 10433 10454 10475 10493 10511 10525 10538 10553 10577 10593 10607 10619 10629 10642 10654 10663 10672 10684 10691 10700 10710 10718 10723 10729 10741 10758 10764 10766 10771 10779 10783 10785 10790 10797 10801 10807 10811 10813 10815
10291 10307 10325 10346 10370 10396 10416 10438 10456 10474 10482 10507 10521 10539 10556 10575 10592 10602 10616 10629 10640 10651 10661 10673 10681 10689 10697 10707 10713 10720 10734 10742 10749 10755 10763 10769 10772 10776 10779 10786 10793 10798 10802 10803 10805
10277 10290 10308 10329 10353 10377 10399 10421 10436 10455 10470 10481 10505 10522 10551 10564 10574 10587 10599 10611 10625 10635 10645 10658 10670 10679 10689 10697 10707 10708 10713 10722 10730 10739 10753 10762 10765 10766 10773 10778 10784 10788 10790 10791 10793
10263 10275 10294 10313 10337 10361 10383 10401 10417 10440 10455 10480 10501 10513 10528 10542 10554 10571 10581 10593 10605 10618 10631 10641 10654 10669 10673 10677 10684 10689 10696 10707 10717 10727 10737 10748 10756 10757 10763 10770 10773 10775 10776 10780 10781
10250 10262 10280 10301 10322 10344 10365 10381 10404 10426 10450 10467 10480 10495 10506 10520 10534 10548 10563 10575 10587 10600 10611 10622 10644 10648 10652 10660 10669 10678 10686 10693 10700 10709 10719 10731 10743 10748 10754 10758 10759 10761 10766 10766 10768
10238 10252 10270 10288 10309 10329 10349 10369 10398 10416 10433 10450 10465 10474 10486 10502 10516 10530 10544 10558 10571 10581 10593 10604 10622 10628 10637 10646 10655 10664 10672 10677 10684 10694 10702 10715 10731 10737 10739 10746 10748 10750 10750 10752 10754
10227 10241 10258 10277 10297 10315 10336 10361 10383 10398 10413 10434 10445 10455 10470 10484 10498 10512 10527 10542 10558 10571 10581 10591 10606 10611 10623 10634 10641 10648 10654 10659 10666 10675 10688 10701 10717 10725 10729 10735 10738 10735 10734 10737 10740
10218 10231 10247 10264 10283 10304 10325 10348 10359 10386 10398 10411 10419 10443 10458 10469 10484 10499 10513 10525 10541 10552 10562 10581 10591 10596 10602 10613 10615 10631 10635 10642 10649 10656 10670 10686 10692 10721 10718 10722 10719 10716 10719 10723 10725
10209 10221 10236 10252 10270 10289 10309 10330 10350 10361 10372 10387 10406 10430 10444 10455 10466 10481 10497 10511 10524 10537 10548 10564 10578 10586 10591 10597 10599 10609 10616 10622 10629 10638 10651 10666 10670 10706 10708 10704 10696 10697 10703 10706 10709
10201 10214 10226 10242 10259 10278 10297 10317 10331 10346 10354 10372 10395 10417 10428 10436 10451 10469 10485 10497 10509 10522 10536 10549 10558 10566 10573 10578 10583 10595 10602 10602 10606 10614 10636 10640 10647 10692 10687 10685 10679 10677 10682 10689 10693
10196 10206 10220 10235 10251 10267 10283 10303 10317 10332 10341 10355 10382 10398 10411 10417 10435 10455 10470 10483 10495 10507 10517 10528 10543 10551 10556 10561 10567 10570 10577 10582 10587 10599 10614 10620 10641 10667 10668 10667 10664 10662 10663 10665 10671
10190 10200 10213 10228 10242 10256 10273 10288 10303 10321 10330 10351 10374 10386 10400 10405 10422 10440 10454 10467 10476 10486 10497 10508 10520 10530 10538 10540 10546 10554 10566 10567 10572 10584 10595 10612 10637 10648 10650 10651 10649 10649 10645 10643 10647
10185 10195 10207 10220 10232 10245 10262 10279 10298 10308 10324 10333 10358 10368 10379 10390 10405 10419 10432 10447 10458 10470 10479 10490 10502 10511 10518 10524 10533 10543 10546 10551 10559 10570 10580 10599 10615 10630 10627 10632 10632 10630 10629 10629 10628
10183 10192 10201 10212 10225 10238 10253 10268 10286 10297 10311 10319 10338 10349 10363 10375 10388 10402 10412 10429 10443 10454 10465 10476 10482 10492 10500 10513 10516 10519 10528 10532 10537 10544 10560 10577 10596 10608 10611 10614 10614 10612 10608 10609 10609
10182 10189 10196 10206 10217 10230 10242 10257 10275 10285 10301 10308 10321 10342 10351 10362 10372 10391 10402 10420 10433 10446 10451 10457 10466 10478 10486 10492 10494 10501 10511 10512 10522 10537 10536 10551 10582 10586 10587 10590 10591 10589 10587 10588 10589
10181 10187 10195 10203 10214 10225 10235 10247 10263 10277 10288 10294 10309 10324 10335 10347 10356 10373 10390 10403 10415 10428 10431 10436 10449 10459 10467 10472 10480 10488 10494 10495 10501 10508 10520 10528 10572 10568 10567 10570 10568 10563 10565 10566 10569
10183 10189 10195 10203 10213 10221 10229 10240 10253 10264 10274 10282 10294 10306 10318 10331 10342 10361 10372 10386 10400 10410 10413 10421 10426 10439 10445 10447 10455 10463 10469 10474 10475 10483 10515 10514 10551 10556 10553 10549 10544 10543 10543 10543 10543
10186 10189 10194 10201 10209 10216 10223 10233 10243 10253 10264 10272 10281 10294 10307 10321 10329 10346 10355 10370 10379 10387 10397 10402 10408 10413 10420 10430 10438 10446 10452 10458 10467 10487 10480 10511 10510 10536 10523 10523 10520 10520 10522 10519 10518
10190 10193 10196 10200 10206 10213 10219 10226 10235 10244 10253 10262 10271 10282 10296 10306 10319 10332 10342 10352 10355 10369 10377 10381 10389 10394 10406 10413 10418 10425 10441 10449 10453 10463 10460 10481 10484 10502 10502 10496 10503 10502 10487 10490 10500
10193 10195 10199 10202 10205 10210 10216 10222 10230 10239 10247 10256 10264 10273 10283 10294 10306 10317 10326 10333 10338 10350 10354 10368 10374 10379 10385 10389 10392 10409 10430 10426 10432 10441 10440 10446 10468 10469 10473 10467 10471 10464 10461 10465 10469